Time,TemperatureF,DewpointF,PressureIn,WindDirection,WindDirectionDegrees,WindSpeedMPH,WindSpeedGustMPH,Humidity,HourlyPrecipIn,Conditions,Clouds,dailyrainin,SolarRadiationWatts/m^2,SoftwareType,DateUTC
2013-12-31 00:02:00,19.0,14.0,-100.00,NNE,21,1.0,3.0,82,0.00,,,0.00,0.000000,,2013-12-31 07:02:00,
2013-12-31 00:42:00,19.0,14.0,-100.00,North,2,2.0,2.0,82,0.00,,,-99.99,0.000000,,2013-12-31 07:42:00,
2013-12-31 00:52:00,19.0,14.0,-100.00,North,2,2.0,2.0,82,0.00,,,-99.99,0.000000,,2013-12-31 07:52:00,
2013-12-31 01:02:00,19.0,14.0,-100.00,North,2,2.0,2.0,82,0.00,,,-99.99,0.000000,,2013-12-31 08:02:00,
2013-12-31 01:42:00,18.0,14.0,-100.00,North,-999,0.0,2.0,83,0.00,,,0.00,0.000000,,2013-12-31 08:42:00,
2013-12-31 01:52:00,18.0,14.0,-100.00,North,-999,0.0,2.0,83,0.00,,,0.00,0.000000,,2013-12-31 08:52:00,
2013-12-31 02:01:00,18.0,14.0,-100.00,North,-999,0.0,2.0,83,0.00,,,0.00,0.000000,,2013-12-31 09:01:00,
2013-12-31 02:43:00,17.0,14.0,-100.00,North,5,1.0,2.0,86,0.00,,,0.00,0.000000,,2013-12-31 09:43:00,
2013-12-31 02:53:00,17.0,14.0,-100.00,North,5,1.0,2.0,86,0.00,,,0.00,0.000000,,2013-12-31 09:53:00,
2013-12-31 03:02:00,17.0,14.0,-100.00,North,5,1.0,2.0,86,0.00,,,0.00,0.000000,,2013-12-31 10:02:00,
2013-12-31 03:43:00,16.0,13.0,-100.00,North,-999,0.0,2.0,89,0.00,,,0.00,0.000000,,2013-12-31 10:43:00,
2013-12-31 03:53:00,16.0,13.0,-100.00,North,-999,0.0,2.0,89,0.00,,,0.00,0.000000,,2013-12-31 10:53:00,
2013-12-31 04:02:00,16.0,13.0,-100.00,North,-999,0.0,2.0,89,0.00,,,0.00,0.000000,,2013-12-31 11:02:00,
2013-12-31 04:43:00,17.0,15.0,-100.00,North,-999,0.0,0.0,92,0.00,,,0.00,0.000000,,2013-12-31 11:43:00,
2013-12-31 04:52:00,17.0,15.0,-100.00,North,-999,0.0,0.0,92,0.00,,,0.00,0.000000,,2013-12-31 11:52:00,
2013-12-31 05:02:00,17.0,15.0,-100.00,North,-999,0.0,0.0,92,0.00,,,0.00,0.000000,,2013-12-31 12:02:00,
2013-12-31 05:42:00,16.0,13.0,-100.00,North,-999,0.0,0.0,88,0.00,,,0.00,0.000000,,2013-12-31 12:42:00,
2013-12-31 05:52:00,16.0,13.0,-100.00,North,-999,0.0,0.0,88,0.00,,,0.00,0.000000,,2013-12-31 12:52:00,
2013-12-31 06:02:00,16.0,13.0,-100.00,North,-999,0.0,0.0,88,0.00,,,0.00,0.000000,,2013-12-31 13:02:00,
2013-12-31 06:42:00,16.0,14.0,-100.00,North,-999,0.0,1.0,90,0.00,,,0.00,0.000000,,2013-12-31 13:42:00,
2013-12-31 06:52:00,16.0,14.0,-100.00,North,-999,0.0,1.0,90,0.00,,,0.00,0.000000,,2013-12-31 13:52:00,
2013-12-31 07:02:00,16.0,14.0,-100.00,North,-999,0.0,1.0,90,0.00,,,0.00,0.000000,,2013-12-31 14:02:00,
2013-12-31 07:43:00,16.0,14.0,-100.00,NE,48,1.0,2.0,90,0.00,,,0.00,0.000000,,2013-12-31 14:43:00,
2013-12-31 07:52:00,16.0,14.0,-100.00,NE,48,1.0,2.0,90,0.00,,,0.00,0.000000,,2013-12-31 14:52:00,
2013-12-31 08:02:00,16.0,14.0,-100.00,NE,48,1.0,2.0,90,0.00,,,0.00,0.000000,,2013-12-31 15:02:00,
2013-12-31 08:43:00,17.0,14.0,-100.00,NE,41,2.0,2.0,88,0.00,,,0.00,8.000000,,2013-12-31 15:43:00,
2013-12-31 08:53:00,17.0,14.0,-100.00,NE,41,2.0,2.0,88,0.00,,,0.00,8.000000,,2013-12-31 15:53:00,
2013-12-31 09:03:00,17.0,14.0,-100.00,NE,41,2.0,2.0,88,0.00,,,0.00,8.000000,,2013-12-31 16:03:00,
2013-12-31 09:43:00,30.0,25.0,-100.00,ENE,68,2.0,3.0,82,-99.99,,,0.00,127.000000,,2013-12-31 16:43:00,
2013-12-31 09:52:00,30.0,25.0,-100.00,ENE,68,2.0,3.0,82,-99.99,,,0.00,127.000000,,2013-12-31 16:52:00,
2013-12-31 10:02:00,30.0,25.0,-100.00,ENE,68,2.0,3.0,82,-99.99,,,0.00,127.000000,,2013-12-31 17:02:00,
2013-12-31 10:53:00,48.0,31.0,-100.00,SSW,208,1.0,4.0,51,0.00,,,0.00,323.000000,,2013-12-31 17:53:00,
2013-12-31 11:02:00,48.0,31.0,-100.00,SSW,208,1.0,4.0,51,0.00,,,0.00,323.000000,,2013-12-31 18:02:00,
2013-12-31 11:42:00,51.0,19.0,-100.00,SSW,197,5.0,7.0,28,0.00,,,0.00,447.000000,,2013-12-31 18:42:00,
2013-12-31 11:53:00,51.0,19.0,-100.00,SSW,197,5.0,7.0,28,0.00,,,0.00,447.000000,,2013-12-31 18:53:00,
2013-12-31 12:01:00,51.0,19.0,-100.00,SSW,197,5.0,7.0,28,0.00,,,0.00,447.000000,,2013-12-31 19:01:00,
2013-12-31 12:43:00,53.0,16.0,-100.00,SW,235,7.0,11.0,23,0.00,,,0.00,524.000000,,2013-12-31 19:43:00,
2013-12-31 12:53:00,53.0,16.0,-100.00,SW,235,7.0,11.0,23,0.00,,,0.00,524.000000,,2013-12-31 19:53:00,
2013-12-31 13:02:00,53.0,16.0,-100.00,SW,235,7.0,11.0,23,0.00,,,0.00,524.000000,,2013-12-31 20:02:00,
2013-12-31 13:42:00,55.0,17.0,-100.00,SW,235,7.0,11.0,22,0.00,,,0.00,537.000000,,2013-12-31 20:42:00,
2013-12-31 13:53:00,55.0,17.0,-100.00,SW,235,7.0,11.0,22,0.00,,,0.00,537.000000,,2013-12-31 20:53:00,
2013-12-31 14:02:00,55.0,17.0,-100.00,SW,235,7.0,11.0,22,0.00,,,0.00,537.000000,,2013-12-31 21:02:00,
2013-12-31 14:43:00,56.0,18.0,-100.00,WSW,239,8.0,15.0,22,0.00,,,0.00,503.000000,,2013-12-31 21:43:00,
2013-12-31 14:53:00,56.0,18.0,-100.00,WSW,239,8.0,15.0,22,0.00,,,0.00,503.000000,,2013-12-31 21:53:00,
2013-12-31 15:02:00,56.0,18.0,-100.00,WSW,239,8.0,15.0,22,0.00,,,0.00,503.000000,,2013-12-31 22:02:00,
2013-12-31 15:43:00,55.0,19.0,-100.00,SSW,205,6.0,12.0,24,0.00,,,0.00,400.000000,,2013-12-31 22:43:00,
2013-12-31 15:53:00,55.0,19.0,-100.00,SSW,205,6.0,12.0,24,0.00,,,0.00,400.000000,,2013-12-31 22:53:00,
2013-12-31 16:02:00,55.0,19.0,-100.00,SSW,205,6.0,12.0,24,0.00,,,0.00,400.000000,,2013-12-31 23:02:00,
2013-12-31 16:43:00,54.0,21.0,-100.00,SSW,208,5.0,12.0,27,0.00,,,0.00,258.000000,,2013-12-31 23:43:00,
2013-12-31 16:53:00,54.0,21.0,-100.00,SSW,208,5.0,12.0,27,0.00,,,0.00,258.000000,,2013-12-31 23:53:00,
2013-12-31 17:02:00,54.0,21.0,-100.00,SSW,208,5.0,12.0,27,0.00,,,0.00,258.000000,,2014-01-01 00:02:00,
2013-12-31 17:42:00,48.0,20.0,-100.00,SSW,210,5.0,11.0,32,0.00,,,0.00,92.000000,,2014-01-01 00:42:00,
2013-12-31 17:52:00,48.0,20.0,-100.00,SSW,210,5.0,11.0,32,0.00,,,0.00,92.000000,,2014-01-01 00:52:00,
2013-12-31 18:02:00,48.0,20.0,-100.00,SSW,210,5.0,11.0,32,0.00,,,0.00,92.000000,,2014-01-01 01:02:00,
2013-12-31 18:42:00,40.0,20.0,-100.00,WSW,253,3.0,8.0,44,0.00,,,0.00,4.000000,,2014-01-01 01:42:00,
2013-12-31 18:52:00,40.0,20.0,-100.00,WSW,253,3.0,8.0,44,0.00,,,0.00,4.000000,,2014-01-01 01:52:00,
2013-12-31 19:02:00,40.0,20.0,-100.00,WSW,253,3.0,8.0,44,0.00,,,0.00,4.000000,,2014-01-01 02:02:00,
2013-12-31 19:42:00,33.0,21.0,-100.00,West,262,1.0,4.0,61,0.00,,,0.00,0.000000,,2014-01-01 02:42:00,
2013-12-31 19:52:00,33.0,21.0,-100.00,West,262,1.0,4.0,61,0.00,,,0.00,0.000000,,2014-01-01 02:52:00,
2013-12-31 20:02:00,33.0,21.0,-100.00,West,262,1.0,4.0,61,0.00,,,0.00,0.000000,,2014-01-01 03:02:00,
2013-12-31 20:44:00,29.0,20.0,-100.00,WSW,239,1.0,3.0,68,0.00,,,0.00,0.000000,,2014-01-01 03:44:00,
2013-12-31 20:53:00,29.0,20.0,-100.00,WSW,239,1.0,3.0,68,0.00,,,0.00,0.000000,,2014-01-01 03:53:00,
2013-12-31 21:03:00,29.0,20.0,-100.00,WSW,239,1.0,3.0,68,0.00,,,0.00,0.000000,,2014-01-01 04:03:00,
2013-12-31 21:43:00,30.0,21.0,-100.00,SW,228,2.0,4.0,68,0.00,,,0.00,0.000000,,2014-01-01 04:43:00,
2013-12-31 21:53:00,30.0,21.0,-100.00,SW,228,2.0,4.0,68,0.00,,,0.00,0.000000,,2014-01-01 04:53:00,
2013-12-31 22:02:00,30.0,21.0,-100.00,SW,228,2.0,4.0,68,0.00,,,0.00,0.000000,,2014-01-01 05:02:00,
2013-12-31 22:43:00,31.0,18.0,-100.00,West,261,3.0,4.0,59,0.00,,,-99.99,0.000000,,2014-01-01 05:43:00,
2013-12-31 22:52:00,31.0,18.0,-100.00,West,261,3.0,4.0,59,0.00,,,-99.99,0.000000,,2014-01-01 05:52:00,
2013-12-31 23:02:00,31.0,18.0,-100.00,West,261,3.0,4.0,59,0.00,,,-99.99,0.000000,,2014-01-01 06:02:00,
2013-12-31 23:42:00,29.0,18.0,-100.00,SW,236,3.0,5.0,63,0.00,,,0.00,0.000000,,2014-01-01 06:42:00,
2013-12-31 23:52:00,29.0,18.0,-100.00,SW,236,3.0,5.0,63,0.00,,,0.00,0.000000,,2014-01-01 06:52:00,